Location: Innerarity Island Observatory
(30.3139°N, 87.4867°W)
Time: 05:42:47
(UTC-05:00)

JAS-2 - Visible Passes

Search period start: 29 July 2014 00:00
Search period end: 08 August 2014 00:00
Orbit: 800 x 1322 km, 98.5° (Epoch: 29 July)

Date Brightness Start Highest point End Pass type
(mag) Time Alt. Az. Time Alt. Az. Time Alt. Az.
03 Aug 13.1 20:25:35 10° W 20:26:44 10° W 20:27:53 10° W visible
05 Aug 13.0 20:19:44 10° WSW 20:21:54 11° W 20:24:01 10° WNW visible
06 Aug 12.2 05:48:31 10° ENE 05:50:44 13° E 05:52:55 10° ESE visible
07 Aug 12.9 20:14:17 10° WSW 20:17:03 12° W 20:19:46 10° WNW visible
